Tracking 35030 objects as of 9-Aug-2026
HD Live streaming from Space Station
objects crossing your sky now

SL-12 DEB


SL-12 DEB is no longer on orbit


NORAD ID: 29306
Int'l Code: 1989-039M
Launch date: May 31, 1989
Source: Commonwealth of Independent States (former USSR) (CIS)
Launch site: TYURATAM MISSILE AND SPACE COMPLEX (TTMTR)
Decay date: 2007-04-16

Note: This is SATELLITE DEBRIS
Your satellite tracking list
Your tracking list is empty




NASA's NSSDC Master Catalog

Two Line Element Set (TLE):
1 29306U 89039M   06341.07416777 +.00699889 +00000-0 +19729-0 0  9999
2 29306 065.5582 225.0075 5638528 061.7695 348.0305 04.56526870006939
Source of the keplerian elements: AFSPC